,,PA_Meas_PMT16A,,PR_Meas_QMR101_102,,RH_Meas_QMH101,,SR_Meas_QMS101,,TA_Meas_QMH101,,GenWind,,GenWind,
time,status,PA,status,PR,status,RH,status,SR,status,TA,status,DirAvg,status,SpdAvg,
2013-08-09, 00:00:04,VALID,918.566,VALID,0,VALID,88.4392,VALID,0,VALID,18.9034,VALID,118,VALID,0,
2013-08-09, 00:01:04,VALID,918.547,VALID,0,VALID,88.241,VALID,0,VALID,18.9034,VALID,118,VALID,0,
2013-08-09, 00:02:04,VALID,918.529,VALID,0,VALID,88.2868,VALID,0,VALID,18.9229,VALID,118,VALID,0,
2013-08-09, 00:03:04,VALID,918.526,VALID,0,VALID,88.8814,VALID,0,VALID,18.9619,VALID,118,VALID,0,
2013-08-09, 00:04:04,VALID,918.543,VALID,0,VALID,87.9361,VALID,0,VALID,18.9229,VALID,118,VALID,0,
2013-08-09, 00:05:04,VALID,918.525,VALID,0,VALID,87.0213,VALID,0,VALID,18.9828,VALID,118,VALID,0,
2013-08-09, 00:06:04,VALID,918.539,VALID,0,VALID,86.9069,VALID,0,VALID,18.9814,VALID,118,VALID,0,
2013-08-09, 00:07:04,VALID,918.494,VALID,0,VALID,86.4343,VALID,0,VALID,19.0203,VALID,118,VALID,0,
2013-08-09, 00:08:04,VALID,918.511,VALID,0,VALID,86.0455,VALID,0.107441,VALID,19.0203,VALID,118,VALID,0,
2013-08-09, 00:09:04,VALID,918.487,VALID,0,VALID,85.9083,VALID,0,VALID,19.0413,VALID,118,VALID,0,
2013-08-09, 00:10:04,VALID,918.514,VALID,0,VALID,87.2347,VALID,0,VALID,19.0398,VALID,118,VALID,0,
2013-08-09, 00:11:04,VALID,918.494,VALID,0,VALID,87.9056,VALID,0,VALID,19.0203,VALID,118,VALID,0,
2013-08-09, 00:12:04,VALID,918.487,VALID,0,VALID,87.8218,VALID,0,VALID,18.9814,VALID,118,VALID,0,
2013-08-09, 00:13:04,VALID,918.526,VALID,0,VALID,87.9361,VALID,0,VALID,18.9619,VALID,118,VALID,0,
2013-08-09, 00:14:04,VALID,918.522,VALID,0,VALID,87.8599,VALID,0,VALID,18.9438,VALID,118,VALID,0,
2013-08-09, 00:15:04,VALID,918.564,VALID,0,VALID,88.1114,VALID,0,VALID,18.9243,VALID,118,VALID,0,
2013-08-09, 00:16:04,VALID,918.535,VALID,0,VALID,88.7594,VALID,0,VALID,18.9438,VALID,118,VALID,0,
2013-08-09, 00:17:04,VALID,918.539,VALID,0,VALID,89.3083,VALID,0,VALID,18.8644,VALID,118,VALID,0,
2013-08-09, 00:18:04,VALID,918.571,VALID,0,VALID,89.0796,VALID,0,VALID,18.7878,VALID,138,VALID,0,
2013-08-09, 00:19:04,VALID,918.542,VALID,0,VALID,89.6437,VALID,0,VALID,18.7293,VALID,138,VALID,0,
2013-08-09, 00:20:04,VALID,918.508,VALID,0,VALID,90.368,VALID,0.107441,VALID,18.6694,VALID,138,VALID,0,
2013-08-09, 00:21:04,VALID,918.48,VALID,0,VALID,90.8711,VALID,0,VALID,18.6304,VALID,138,VALID,0,
2013-08-09, 00:22:04,VALID,918.477,VALID,0,VALID,90.8559,VALID,0,VALID,18.5914,VALID,138,VALID,0,
2013-08-09, 00:23:04,VALID,918.463,VALID,0,VALID,90.8559,VALID,0,VALID,18.6708,VALID,138,VALID,0,
2013-08-09, 00:24:04,VALID,918.459,VALID,0,VALID,91.077,VALID,0,VALID,18.6499,VALID,138,VALID,0,
2013-08-09, 00:25:04,VALID,918.433,VALID,0,VALID,91.0083,VALID,0,VALID,18.5914,VALID,138,VALID,0,
2013-08-09, 00:26:04,VALID,918.385,VALID,0,VALID,91.2828,VALID,0,VALID,18.5135,VALID,138,VALID,0,
2013-08-09, 00:27:04,VALID,918.406,VALID,0,VALID,91.6106,VALID,0,VALID,18.4355,VALID,138,VALID,0,
2013-08-09, 00:28:04,VALID,918.385,VALID,0,VALID,91.6792,VALID,0.107441,VALID,18.3979,VALID,138,VALID,0,
2013-08-09, 00:29:04,VALID,918.396,VALID,0,VALID,91.7554,VALID,0,VALID,18.3185,VALID,138,VALID,0,
2013-08-09, 00:30:04,VALID,918.396,VALID,0,VALID,91.7173,VALID,0,VALID,18.2796,VALID,138,VALID,0,
2013-08-09, 00:31:04,VALID,918.412,VALID,0,VALID,91.885,VALID,0,VALID,18.2796,VALID,138,VALID,0,
2013-08-09, 00:32:04,VALID,918.37,VALID,0,VALID,91.9536,VALID,0,VALID,18.3004,VALID,138,VALID,0,
2013-08-09, 00:33:04,VALID,918.348,VALID,0,VALID,89.8572,VALID,0,VALID,18.242,VALID,38,VALID,0,
2013-08-09, 00:34:04,VALID,918.348,VALID,0,VALID,89.5599,VALID,0,VALID,18.377,VALID,38,VALID,0,
2013-08-09, 00:35:04,VALID,918.323,VALID,0,VALID,88.9958,VALID,0,VALID,18.4759,VALID,38,VALID,0,
2013-08-09, 00:36:04,VALID,918.316,VALID,0,VALID,88.7747,VALID,0,VALID,18.4745,VALID,38,VALID,0,
2013-08-09, 00:37:04,VALID,918.297,VALID,0,VALID,89.0796,VALID,0,VALID,18.455,VALID,38,VALID,0,
2013-08-09, 00:38:04,VALID,918.263,VALID,0,VALID,89.3464,VALID,0,VALID,18.4369,VALID,38,VALID,0,
2013-08-09, 00:39:04,VALID,918.22,VALID,0,VALID,88.8357,VALID,0,VALID,18.3784,VALID,38,VALID,0,
2013-08-09, 00:40:04,VALID,918.218,VALID,0,VALID,88.6832,VALID,0,VALID,18.3784,VALID,38,VALID,0,
2013-08-09, 00:41:04,VALID,918.222,VALID,0,VALID,87.5549,VALID,0,VALID,18.3979,VALID,38,VALID,0,
2013-08-09, 00:42:04,VALID,918.187,VALID,0,VALID,87.0365,VALID,0,VALID,18.494,VALID,38,VALID,0,
2013-08-09, 00:43:04,VALID,918.176,VALID,0,VALID,86.724,VALID,0,VALID,18.6124,VALID,38,VALID,0,
2013-08-09, 00:44:04,VALID,918.206,VALID,0,VALID,85.9311,VALID,0,VALID,18.6708,VALID,342,VALID,0,
2013-08-09, 00:45:04,VALID,918.2,VALID,0,VALID,85.2069,VALID,0,VALID,18.8463,VALID,1,VALID,0,
2013-08-09, 00:46:04,VALID,918.168,VALID,0,VALID,84.8029,VALID,0,VALID,19.0023,VALID,5,VALID,0,
2013-08-09, 00:47:04,VALID,918.15,VALID,0,VALID,84.1778,VALID,0,VALID,19.0803,VALID,8,VALID,0,
2013-08-09, 00:48:04,VALID,918.15,VALID,0,VALID,83.8423,VALID,0,VALID,19.1388,VALID,8,VALID,0,
2013-08-09, 00:49:04,VALID,918.138,VALID,0,VALID,83.5603,VALID,0,VALID,19.1973,VALID,7,VALID,0,
2013-08-09, 00:50:04,VALID,918.112,VALID,0,VALID,83.5984,VALID,0,VALID,19.2363,VALID,7,VALID,0,
2013-08-09, 00:51:04,VALID,918.071,VALID,0,VALID,83.7127,VALID,0,VALID,19.2348,VALID,7,VALID,0,
2013-08-09, 00:52:04,VALID,918.055,VALID,0,VALID,83.8957,VALID,0,VALID,19.2348,VALID,17,VALID,0,
2013-08-09, 00:53:04,VALID,918.039,VALID,0,VALID,83.7051,VALID,0,VALID,19.2348,VALID,12,VALID,0,
2013-08-09, 00:54:04,VALID,918.013,VALID,0,VALID,83.728,VALID,0,VALID,19.2558,VALID,4,VALID,0,
2013-08-09, 00:55:04,VALID,917.965,VALID,0,VALID,83.8195,VALID,0,VALID,19.2738,VALID,356,VALID,0,
2013-08-09, 00:56:04,VALID,917.986,VALID,0,VALID,83.7585,VALID,0,VALID,19.2933,VALID,352,VALID,0,
2013-08-09, 00:57:04,VALID,917.917,VALID,0,VALID,83.1715,VALID,0,VALID,19.3728,VALID,351,VALID,0,
2013-08-09, 00:58:04,VALID,917.919,VALID,0,VALID,82.8665,VALID,0,VALID,19.4493,VALID,13,VALID,0,
2013-08-09, 00:59:04,VALID,917.901,VALID,0,VALID,83.0419,VALID,0,VALID,19.5078,VALID,12,VALID,0,
2013-08-09, 01:00:04,VALID,917.882,VALID,0,VALID,83.0952,VALID,0,VALID,19.5093,VALID,10,VALID,0,
2013-08-09, 01:01:04,VALID,917.893,VALID,0,VALID,83.423,VALID,0,VALID,19.4898,VALID,8,VALID,0,
2013-08-09, 01:02:04,VALID,917.876,VALID,0,VALID,83.2553,VALID,0,VALID,19.4508,VALID,9,VALID,0,
2013-08-09, 01:03:04,VALID,917.88,VALID,0,VALID,83.2629,VALID,0,VALID,19.4493,VALID,355,VALID,0,
2013-08-09, 01:04:04,VALID,917.883,VALID,0,VALID,83.4002,VALID,0,VALID,19.5093,VALID,2,VALID,0,
2013-08-09, 01:05:04,VALID,917.869,VALID,0,VALID,83.3925,VALID,0,VALID,19.5093,VALID,357,VALID,0,
2013-08-09, 01:06:04,VALID,917.857,VALID,0,VALID,83.4307,VALID,0,VALID,19.5468,VALID,356,VALID,0,
2013-08-09, 01:07:04,VALID,917.813,VALID,0,VALID,83.4002,VALID,0,VALID,19.5678,VALID,353,VALID,0,
2013-08-09, 01:08:04,VALID,917.777,VALID,0,VALID,83.4688,VALID,0,VALID,19.6068,VALID,358,VALID,0,
2013-08-09, 01:09:04,VALID,917.802,VALID,0,VALID,83.7661,VALID,0,VALID,19.5858,VALID,354,VALID,0,
2013-08-09, 01:10:04,VALID,917.775,VALID,0,VALID,83.9719,VALID,0,VALID,19.5858,VALID,2,VALID,0,
2013-08-09, 01:11:04,VALID,917.758,VALID,0,VALID,84.2616,VALID,0,VALID,19.5663,VALID,354,VALID,0,
2013-08-09, 01:12:04,VALID,917.752,VALID,0,VALID,84.3302,VALID,0,VALID,19.5858,VALID,353,VALID,0,
2013-08-09, 01:13:04,VALID,917.768,VALID,0,VALID,84.376,VALID,0,VALID,19.5858,VALID,327,VALID,0,
2013-08-09, 01:14:04,VALID,917.766,VALID,0,VALID,84.4827,VALID,0,VALID,19.6068,VALID,4,VALID,0,
2013-08-09, 01:15:04,VALID,917.736,VALID,0,VALID,84.5513,VALID,0,VALID,19.6458,VALID,337,VALID,0,
2013-08-09, 01:16:04,VALID,917.733,VALID,0,VALID,84.7571,VALID,0,VALID,19.6053,VALID,348,VALID,0,
2013-08-09, 01:17:04,VALID,917.754,VALID,0,VALID,84.78,VALID,0,VALID,19.6053,VALID,354,VALID,0,
2013-08-09, 01:18:04,VALID,917.698,VALID,0,VALID,84.8867,VALID,0,VALID,19.6053,VALID,360,VALID,0,
2013-08-09, 01:19:04,VALID,917.689,VALID,0,VALID,85.1307,VALID,0,VALID,19.6068,VALID,351,VALID,0,
2013-08-09, 01:20:04,VALID,917.669,VALID,0,VALID,84.9096,VALID,0,VALID,19.6458,VALID,25,VALID,0,
2013-08-09, 01:21:04,VALID,917.633,VALID,0,VALID,84.6352,VALID,0,VALID,19.6443,VALID,9,VALID,0,
2013-08-09, 01:22:04,VALID,917.604,VALID,0,VALID,84.8867,VALID,0,VALID,19.6833,VALID,16,VALID,0,
2013-08-09, 01:23:04,VALID,917.6,VALID,0,VALID,84.8867,VALID,0,VALID,19.7238,VALID,353,VALID,0,
2013-08-09, 01:24:04,VALID,917.576,VALID,0,VALID,84.9249,VALID,0,VALID,19.7238,VALID,7,VALID,0,
2013-08-09, 01:25:04,VALID,917.579,VALID,0,VALID,84.9706,VALID,0,VALID,19.7238,VALID,1,VALID,0,
2013-08-09, 01:26:04,VALID,917.564,VALID,0,VALID,85.2069,VALID,0,VALID,19.7223,VALID,13,VALID,0,
2013-08-09, 01:27:04,VALID,917.558,VALID,0,VALID,85.2679,VALID,0,VALID,19.7433,VALID,9,VALID,0,
2013-08-09, 01:28:04,VALID,917.546,VALID,0,VALID,85.3594,VALID,0,VALID,19.7613,VALID,357,VALID,0,
2013-08-09, 01:29:04,VALID,917.533,VALID,0,VALID,85.2679,VALID,0,VALID,19.8003,VALID,8,VALID,0,
2013-08-09, 01:30:04,VALID,917.554,VALID,0,VALID,85.1612,VALID,0,VALID,19.8198,VALID,4,VALID,0,
2013-08-09, 01:31:04,VALID,917.541,VALID,0,VALID,85.1383,VALID,0,VALID,19.8603,VALID,14,VALID,0,
2013-08-09, 01:32:04,VALID,917.529,VALID,0,VALID,85.3289,VALID,0,VALID,19.8588,VALID,12,VALID,0,
2013-08-09, 01:33:04,VALID,917.505,VALID,0,VALID,85.1841,VALID,0,VALID,19.8783,VALID,24,VALID,0,
2013-08-09, 01:34:04,VALID,917.503,VALID,0,VALID,85.4661,VALID,0,VALID,19.8993,VALID,16,VALID,0,
2013-08-09, 01:35:04,VALID,917.51,VALID,0,VALID,85.4585,VALID,0,VALID,19.8783,VALID,19,VALID,0,
2013-08-09, 01:36:04,VALID,917.519,VALID,0,VALID,85.7406,VALID,0,VALID,19.8978,VALID,8,VALID,0,
2013-08-09, 01:37:04,VALID,917.492,VALID,0,VALID,86.48,VALID,0.107441,VALID,19.9773,VALID,17,VALID,0,
2013-08-09, 01:38:04,VALID,917.517,VALID,0,VALID,85.9845,VALID,0,VALID,20.0358,VALID,350,VALID,0,
2013-08-09, 01:39:04,VALID,917.509,VALID,0,VALID,85.9083,VALID,0.107441,VALID,20.0538,VALID,19,VALID,0,
2013-08-09, 01:40:04,VALID,917.54,VALID,0,VALID,85.8702,VALID,0,VALID,20.0733,VALID,11,VALID,0,
2013-08-09, 01:41:04,VALID,917.508,VALID,0,VALID,85.8854,VALID,0,VALID,20.0733,VALID,25,VALID,0,
2013-08-09, 01:42:04,VALID,917.487,VALID,0,VALID,86.137,VALID,0.107441,VALID,20.0538,VALID,10,VALID,0,
2013-08-09, 01:43:04,VALID,917.491,VALID,0,VALID,86.4572,VALID,0,VALID,20.0538,VALID,6,VALID,0,
2013-08-09, 01:44:04,VALID,917.478,VALID,0,VALID,86.3428,VALID,0,VALID,20.0944,VALID,354,VALID,0,
2013-08-09, 01:45:04,VALID,917.494,VALID,0,VALID,86.4572,VALID,0,VALID,20.0928,VALID,11,VALID,0,
2013-08-09, 01:46:04,VALID,917.492,VALID,0,VALID,86.5868,VALID,0,VALID,20.0928,VALID,358,VALID,0,
2013-08-09, 01:47:04,VALID,917.457,VALID,0,VALID,86.7926,VALID,0,VALID,20.1139,VALID,19,VALID,0,
2013-08-09, 01:48:04,VALID,917.469,VALID,0,VALID,86.6935,VALID,0,VALID,20.1139,VALID,356,VALID,0,
2013-08-09, 01:49:04,VALID,917.473,VALID,0,VALID,86.6859,VALID,0.107441,VALID,20.1334,VALID,16,VALID,0,
2013-08-09, 01:50:04,VALID,917.432,VALID,0,VALID,86.8002,VALID,0,VALID,20.1139,VALID,9,VALID,0,
2013-08-09, 01:51:04,VALID,917.411,VALID,0,VALID,86.8993,VALID,0.107441,VALID,20.0733,VALID,5,VALID,0,
2013-08-09, 01:52:04,VALID,917.424,VALID,0,VALID,87.0061,VALID,0,VALID,20.0928,VALID,353,VALID,0,
2013-08-09, 01:53:04,VALID,917.406,VALID,0,VALID,87.0365,VALID,0,VALID,20.1139,VALID,342,VALID,0,
2013-08-09, 01:54:04,VALID,917.384,VALID,0,VALID,87.0899,VALID,0.107441,VALID,20.1318,VALID,348,VALID,0,
2013-08-09, 01:55:04,VALID,917.378,VALID,0,VALID,87.1128,VALID,0.107441,VALID,20.1513,VALID,332,VALID,0,
2013-08-09, 01:56:04,VALID,917.348,VALID,0,VALID,86.7392,VALID,0,VALID,20.1513,VALID,322,VALID,0,
2013-08-09, 01:57:04,VALID,917.302,VALID,0,VALID,86.7316,VALID,0.107441,VALID,20.1513,VALID,344,VALID,0,
2013-08-09, 01:58:04,VALID,917.294,VALID,0,VALID,87.1433,VALID,0.107441,VALID,20.1123,VALID,5,VALID,0,
2013-08-09, 01:59:04,VALID,917.285,VALID,0,VALID,87.3796,VALID,0,VALID,20.0733,VALID,21,VALID,0,
2013-08-09, 02:00:04,VALID,917.304,VALID,0,VALID,87.5244,VALID,0,VALID,20.0944,VALID,336,VALID,0,
2013-08-09, 02:01:04,VALID,917.303,VALID,0,VALID,86.7773,VALID,0,VALID,20.0148,VALID,336,VALID,0,
2013-08-09, 02:02:04,VALID,917.276,VALID,0,VALID,86.8307,VALID,0,VALID,19.9968,VALID,338,VALID,0,
2013-08-09, 02:03:04,VALID,917.229,VALID,0,VALID,87.2957,VALID,0,VALID,20.0163,VALID,15,VALID,0,
2013-08-09, 02:04:04,VALID,917.234,VALID,0,VALID,87.5397,VALID,0,VALID,19.9758,VALID,15,VALID,0,
2013-08-09, 02:05:04,VALID,917.214,VALID,0,VALID,87.7989,VALID,0,VALID,19.9563,VALID,13,VALID,0,
2013-08-09, 02:06:04,VALID,917.208,VALID,0,VALID,87.959,VALID,0.107441,VALID,19.9368,VALID,12,VALID,0,
2013-08-09, 02:07:04,VALID,917.165,VALID,0,VALID,88.1038,VALID,0,VALID,19.9368,VALID,12,VALID,0,
2013-08-09, 02:08:04,VALID,917.147,VALID,0,VALID,88.2792,VALID,0.107441,VALID,19.9578,VALID,12,VALID,0,
2013-08-09, 02:09:04,VALID,917.125,VALID,0,VALID,88.3097,VALID,0,VALID,19.9368,VALID,12,VALID,0,
2013-08-09, 02:10:04,VALID,917.1,VALID,0,VALID,88.363,VALID,0,VALID,19.9368,VALID,15,VALID,0,
2013-08-09, 02:11:04,VALID,917.107,VALID,0,VALID,88.4774,VALID,0,VALID,19.9368,VALID,35,VALID,0,
2013-08-09, 02:12:04,VALID,917.112,VALID,0,VALID,88.4164,VALID,0,VALID,19.9173,VALID,23,VALID,0,
2013-08-09, 02:13:04,VALID,917.104,VALID,0,VALID,88.3554,VALID,0,VALID,19.9368,VALID,23,VALID,0,
2013-08-09, 02:14:04,VALID,917.111,VALID,0,VALID,88.1801,VALID,0,VALID,19.9563,VALID,23,VALID,0,
2013-08-09, 02:15:04,VALID,917.088,VALID,0,VALID,88.2563,VALID,0,VALID,19.9968,VALID,23,VALID,0,
2013-08-09, 02:16:04,VALID,917.056,VALID,0,VALID,88.0047,VALID,0,VALID,20.0764,VALID,23,VALID,0,
2013-08-09, 02:17:04,VALID,917.066,VALID,0,VALID,87.9361,VALID,0,VALID,20.0553,VALID,23,VALID,0,
2013-08-09, 02:18:04,VALID,917.057,VALID,0,VALID,88.0352,VALID,0,VALID,20.0553,VALID,23,VALID,0,
2013-08-09, 02:19:04,VALID,917.093,VALID,0,VALID,88.1496,VALID,0,VALID,20.0358,VALID,23,VALID,0,
2013-08-09, 02:20:04,VALID,917.101,VALID,0,VALID,88.1877,VALID,0,VALID,20.0553,VALID,23,VALID,0,
2013-08-09, 02:21:04,VALID,917.052,VALID,0,VALID,88.0809,VALID,0,VALID,20.0358,VALID,23,VALID,0,
2013-08-09, 02:22:04,VALID,917.044,VALID,0,VALID,88.1191,VALID,0,VALID,20.0358,VALID,23,VALID,0,
2013-08-09, 02:23:04,VALID,917.033,VALID,0,VALID,88.1343,VALID,0,VALID,20.0358,VALID,23,VALID,0,
2013-08-09, 02:24:04,VALID,917.005,VALID,0,VALID,88.1496,VALID,0,VALID,20.0163,VALID,23,VALID,0,
2013-08-09, 02:25:04,VALID,916.976,VALID,0,VALID,88.2334,VALID,0,VALID,19.9968,VALID,23,VALID,0,
2013-08-09, 02:26:04,VALID,916.974,VALID,0,VALID,88.2639,VALID,0,VALID,19.9968,VALID,23,VALID,0,
2013-08-09, 02:27:04,VALID,916.997,VALID,0,VALID,88.3401,VALID,0,VALID,19.9773,VALID,23,VALID,0,
2013-08-09, 02:28:04,VALID,916.973,VALID,0,VALID,88.241,VALID,0,VALID,19.9968,VALID,23,VALID,0,
2013-08-09, 02:29:04,VALID,916.978,VALID,0,VALID,87.7074,VALID,0,VALID,19.9773,VALID,23,VALID,0,
2013-08-09, 02:30:04,VALID,916.982,VALID,0,VALID,87.8904,VALID,0,VALID,19.9758,VALID,23,VALID,0,
2013-08-09, 02:31:04,VALID,916.943,VALID,0,VALID,87.8827,VALID,0,VALID,19.9773,VALID,23,VALID,0,
2013-08-09, 02:32:04,VALID,916.945,VALID,0,VALID,87.8751,VALID,0,VALID,19.9578,VALID,23,VALID,0,
2013-08-09, 02:33:04,VALID,916.944,VALID,0,VALID,87.6235,VALID,0,VALID,19.9383,VALID,23,VALID,0,
2013-08-09, 02:34:04,VALID,916.942,VALID,0,VALID,87.5626,VALID,0,VALID,19.8993,VALID,23,VALID,0,
2013-08-09, 02:35:04,VALID,916.892,VALID,0,VALID,87.776,VALID,0,VALID,19.8393,VALID,23,VALID,0,
2013-08-09, 02:36:04,VALID,916.896,VALID,0,VALID,87.8446,VALID,0,VALID,19.8198,VALID,23,VALID,0,
2013-08-09, 02:37:04,VALID,916.894,VALID,0,VALID,87.7531,VALID,0,VALID,19.8603,VALID,23,VALID,0,
2013-08-09, 02:38:04,VALID,916.865,VALID,0,VALID,88.2487,VALID,0,VALID,19.8798,VALID,38,VALID,0,
2013-08-09, 02:39:04,VALID,916.852,VALID,0,VALID,87.959,VALID,0,VALID,19.9188,VALID,38,VALID,0,
2013-08-09, 02:40:04,VALID,916.825,VALID,0,VALID,88.1648,VALID,0,VALID,19.8783,VALID,38,VALID,0,
2013-08-09, 02:41:04,VALID,916.789,VALID,0,VALID,88.3325,VALID,0,VALID,19.8408,VALID,38,VALID,0,
2013-08-09, 02:42:04,VALID,916.769,VALID,0,VALID,89.0034,VALID,0,VALID,19.7433,VALID,38,VALID,0,
2013-08-09, 02:43:04,VALID,916.724,VALID,0,VALID,89.415,VALID,0,VALID,19.7043,VALID,38,VALID,0,
2013-08-09, 02:44:04,VALID,916.642,VALID,0,VALID,89.6133,VALID,0,VALID,19.6653,VALID,38,VALID,0,
2013-08-09, 02:45:04,VALID,916.665,VALID,0,VALID,89.7733,VALID,0,VALID,19.5858,VALID,23,VALID,0,
2013-08-09, 02:46:04,VALID,916.646,VALID,0,VALID,90.1012,VALID,0,VALID,19.5078,VALID,23,VALID,0,
2013-08-09, 02:47:04,VALID,916.639,VALID,0,VALID,90.3832,VALID,0,VALID,19.4688,VALID,23,VALID,0,
2013-08-09, 02:48:04,VALID,916.6,VALID,0,VALID,90.5967,VALID,0,VALID,19.4103,VALID,23,VALID,0,
2013-08-09, 02:49:04,VALID,916.599,VALID,0,VALID,90.6272,VALID,0,VALID,19.4103,VALID,23,VALID,0,
2013-08-09, 02:50:04,VALID,916.607,VALID,0,VALID,90.7187,VALID,0,VALID,19.4103,VALID,6,VALID,0,
2013-08-09, 02:51:04,VALID,916.56,VALID,0,VALID,90.7644,VALID,0,VALID,19.3908,VALID,6,VALID,0,
2013-08-09, 02:52:04,VALID,916.624,VALID,0,VALID,90.7644,VALID,0,VALID,19.3908,VALID,345,VALID,0,
2013-08-09, 02:53:04,VALID,916.634,VALID,0,VALID,90.9855,VALID,0,VALID,19.3908,VALID,345,VALID,0,
2013-08-09, 02:54:04,VALID,916.645,VALID,0,VALID,91.2218,VALID,0,VALID,19.3713,VALID,345,VALID,0,
2013-08-09, 02:55:04,VALID,916.649,VALID,0,VALID,91.3819,VALID,0,VALID,19.3323,VALID,345,VALID,0,
2013-08-09, 02:56:04,VALID,916.624,VALID,0,VALID,91.5115,VALID,0.107441,VALID,19.2933,VALID,345,VALID,0,
2013-08-09, 02:57:04,VALID,916.643,VALID,0,VALID,91.5572,VALID,0.107441,VALID,19.2334,VALID,345,VALID,0,
2013-08-09, 02:58:04,VALID,916.641,VALID,0,VALID,91.5039,VALID,0,VALID,19.1958,VALID,345,VALID,0,
2013-08-09, 02:59:04,VALID,916.682,VALID,0,VALID,91.6335,VALID,0.107441,VALID,19.1763,VALID,345,VALID,0,
2013-08-09, 03:00:04,VALID,916.648,VALID,0,VALID,91.8927,VALID,0.107441,VALID,19.1568,VALID,345,VALID,0,
2013-08-09, 03:01:04,VALID,916.662,VALID,0,VALID,92.0604,VALID,0,VALID,19.1178,VALID,345,VALID,0,
2013-08-09, 03:02:04,VALID,916.628,VALID,0,VALID,92.1976,VALID,0,VALID,19.0983,VALID,345,VALID,0,
2013-08-09, 03:03:04,VALID,916.582,VALID,0,VALID,92.2967,VALID,0,VALID,19.0593,VALID,347,VALID,0,
2013-08-09, 03:04:04,VALID,916.55,VALID,0,VALID,92.2662,VALID,0,VALID,19.0203,VALID,349,VALID,0,
2013-08-09, 03:05:04,VALID,916.54,VALID,0,VALID,92.2586,VALID,0,VALID,18.9814,VALID,357,VALID,0,
2013-08-09, 03:06:04,VALID,916.54,VALID,0,VALID,92.3882,VALID,0,VALID,18.9424,VALID,357,VALID,0,
2013-08-09, 03:07:04,VALID,916.529,VALID,0,VALID,92.5406,VALID,0,VALID,18.9424,VALID,356,VALID,0,
2013-08-09, 03:08:04,VALID,916.525,VALID,0,VALID,92.7998,VALID,0,VALID,19.0023,VALID,356,VALID,0,
2013-08-09, 03:09:04,VALID,916.527,VALID,0,VALID,92.6779,VALID,0,VALID,19.0398,VALID,356,VALID,0,
2013-08-09, 03:10:04,VALID,916.539,VALID,0,VALID,92.4873,VALID,0.107441,VALID,19.0788,VALID,356,VALID,0,
2013-08-09, 03:11:04,VALID,916.533,VALID,0,VALID,92.2128,VALID,0,VALID,19.0983,VALID,359,VALID,0,
2013-08-09, 03:12:04,VALID,916.505,VALID,0,VALID,91.9003,VALID,0,VALID,19.1388,VALID,22,VALID,0,
2013-08-09, 03:13:04,VALID,916.476,VALID,0,VALID,91.4429,VALID,0,VALID,19.1178,VALID,24,VALID,0,
2013-08-09, 03:14:04,VALID,916.48,VALID,0,VALID,91.359,VALID,0,VALID,19.0983,VALID,17,VALID,0,
2013-08-09, 03:15:04,VALID,916.467,VALID,0,VALID,91.5725,VALID,0,VALID,19.0788,VALID,24,VALID,0,
2013-08-09, 03:16:04,VALID,916.432,VALID,0,VALID,91.8393,VALID,0.107441,VALID,19.0983,VALID,24,VALID,0,
2013-08-09, 03:17:04,VALID,916.436,VALID,0,VALID,91.7707,VALID,0,VALID,19.0983,VALID,18,VALID,0,
2013-08-09, 03:18:04,VALID,916.406,VALID,0,VALID,91.9231,VALID,0,VALID,19.0983,VALID,18,VALID,0,
2013-08-09, 03:19:04,VALID,916.425,VALID,0,VALID,91.9841,VALID,0,VALID,19.0983,VALID,18,VALID,0,
2013-08-09, 03:20:04,VALID,916.392,VALID,0,VALID,92.0604,VALID,0,VALID,19.0983,VALID,17,VALID,0,
2013-08-09, 03:21:04,VALID,916.39,VALID,0,VALID,91.8622,VALID,0,VALID,19.0788,VALID,18,VALID,0,
2013-08-09, 03:22:04,VALID,916.377,VALID,0,VALID,91.7707,VALID,0,VALID,19.0593,VALID,19,VALID,0,
2013-08-09, 03:23:04,VALID,916.385,VALID,0,VALID,91.9231,VALID,0,VALID,19.0608,VALID,14,VALID,0,
2013-08-09, 03:24:04,VALID,916.354,VALID,0,VALID,91.9841,VALID,0,VALID,19.0803,VALID,13,VALID,0,
2013-08-09, 03:25:04,VALID,916.347,VALID,0,VALID,92.0451,VALID,0,VALID,19.0398,VALID,3,VALID,0,
2013-08-09, 03:26:04,VALID,916.345,VALID,0,VALID,92.0527,VALID,0.107441,VALID,19.0593,VALID,2,VALID,0,
2013-08-09, 03:27:04,VALID,916.357,VALID,0,VALID,91.9689,VALID,0,VALID,19.0788,VALID,2,VALID,0,
2013-08-09, 03:28:04,VALID,916.357,VALID,0,VALID,91.8698,VALID,0,VALID,19.0593,VALID,2,VALID,0,
2013-08-09, 03:29:04,VALID,916.325,VALID,0,VALID,91.8393,VALID,0,VALID,19.0398,VALID,2,VALID,0,
2013-08-09, 03:30:04,VALID,916.374,VALID,0,VALID,91.8622,VALID,0,VALID,19.0413,VALID,2,VALID,0,
2013-08-09, 03:31:04,VALID,916.362,VALID,0,VALID,91.8317,VALID,0,VALID,19.0413,VALID,2,VALID,0,
2013-08-09, 03:32:04,VALID,916.337,VALID,0,VALID,91.6868,VALID,0,VALID,19.0023,VALID,2,VALID,0,
2013-08-09, 03:33:04,VALID,916.35,VALID,0,VALID,91.4581,VALID,0,VALID,18.9438,VALID,2,VALID,0,
2013-08-09, 03:34:04,VALID,916.358,VALID,0,VALID,91.359,VALID,0,VALID,18.8839,VALID,2,VALID,0,
2013-08-09, 03:35:04,VALID,916.379,VALID,0,VALID,91.481,VALID,0,VALID,18.8658,VALID,2,VALID,0,
2013-08-09, 03:36:04,VALID,916.408,VALID,0,VALID,91.5267,VALID,0,VALID,18.8463,VALID,2,VALID,0,
2013-08-09, 03:37:04,VALID,916.396,VALID,0,VALID,91.8927,VALID,0,VALID,18.8254,VALID,2,VALID,0,
2013-08-09, 03:38:04,VALID,916.426,VALID,0,VALID,92.0604,VALID,0,VALID,18.8254,VALID,2,VALID,0,
2013-08-09, 03:39:04,VALID,916.415,VALID,0,VALID,92.0756,VALID,0,VALID,18.8268,VALID,2,VALID,0,
2013-08-09, 03:40:04,VALID,916.404,VALID,0,VALID,92.0604,VALID,0,VALID,18.8268,VALID,2,VALID,0,
2013-08-09, 03:41:04,VALID,916.403,VALID,0,VALID,92.007,VALID,0,VALID,18.8073,VALID,2,VALID,0,
2013-08-09, 03:42:04,VALID,916.425,VALID,0,VALID,91.9536,VALID,0.107441,VALID,18.7683,VALID,2,VALID,0,
2013-08-09, 03:43:04,VALID,916.44,VALID,0,VALID,92.2052,VALID,0,VALID,18.7474,VALID,2,VALID,0,
2013-08-09, 03:44:04,VALID,916.434,VALID,0,VALID,92.411,VALID,0,VALID,18.7683,VALID,2,VALID,0,
2013-08-09, 03:45:04,VALID,916.437,VALID,0,VALID,92.6245,VALID,0,VALID,18.7488,VALID,2,VALID,0,
2013-08-09, 03:46:04,VALID,916.439,VALID,0,VALID,92.4187,VALID,0,VALID,18.7098,VALID,2,VALID,0,
2013-08-09, 03:47:04,VALID,916.454,VALID,0,VALID,92.0909,VALID,0,VALID,18.6708,VALID,2,VALID,0,
2013-08-09, 03:48:04,VALID,916.478,VALID,0,VALID,92.1747,VALID,0,VALID,18.6723,VALID,2,VALID,0,
2013-08-09, 03:49:04,VALID,916.498,VALID,0,VALID,92.1823,VALID,0,VALID,18.7127,VALID,2,VALID,0,
2013-08-09, 03:50:04,VALID,916.488,VALID,0,VALID,92.5102,VALID,0,VALID,18.7113,VALID,2,VALID,0,
2013-08-09, 03:51:04,VALID,916.484,VALID,0,VALID,92.6245,VALID,0,VALID,18.7113,VALID,2,VALID,0,
2013-08-09, 03:52:04,VALID,916.493,VALID,0,VALID,92.2967,VALID,0,VALID,18.7308,VALID,2,VALID,0,
2013-08-09, 03:53:04,VALID,916.483,VALID,0,VALID,92.3882,VALID,0,VALID,18.7308,VALID,2,VALID,0,
2013-08-09, 03:54:04,VALID,916.476,VALID,0,VALID,92.068,VALID,0,VALID,18.7113,VALID,2,VALID,0,
2013-08-09, 03:55:04,VALID,916.487,VALID,0,VALID,92.4034,VALID,0,VALID,18.7113,VALID,2,VALID,0,
2013-08-09, 03:56:05,VALID,916.458,VALID,0,VALID,92.3958,VALID,0,VALID,18.7308,VALID,2,VALID,0,
2013-08-09, 03:57:05,VALID,916.441,VALID,0,VALID,92.3806,VALID,0,VALID,18.7113,VALID,2,VALID,0,
2013-08-09, 03:58:05,VALID,916.475,VALID,0,VALID,92.3729,VALID,0,VALID,18.7113,VALID,2,VALID,0,
2013-08-09, 03:59:05,VALID,916.49,VALID,0,VALID,92.3958,VALID,0,VALID,18.6918,VALID,2,VALID,0,
2013-08-09, 04:00:05,VALID,916.484,VALID,0,VALID,92.5559,VALID,0,VALID,18.6903,VALID,2,VALID,0,